Time,TemperatureF,DewpointF,PressureIn,WindDirection,WindDirectionDegrees,WindSpeedMPH,WindSpeedGustMPH,Humidity,HourlyPrecipIn,Conditions,Clouds,dailyrainin,SoftwareType,DateUTC
2013-03-17 00:03:00,52.0,48.0,30.15,SSE,150,1.0,2.0,83,-99.99,,,-99.99,,2013-03-17 04:03:00,
2013-03-17 00:13:00,52.0,48.0,30.15,SSE,150,1.0,2.0,83,-99.99,,,-99.99,,2013-03-17 04:13:00,
2013-03-17 00:23:00,53.0,48.0,30.16,SSW,195,1.0,2.0,83,-99.99,,,-99.99,,2013-03-17 04:23:00,
2013-03-17 00:33:00,53.0,48.0,30.16,SSW,195,1.0,2.0,83,-99.99,,,-99.99,,2013-03-17 04:33:00,
2013-03-17 00:43:00,52.0,48.0,30.15,SSE,153,1.0,2.0,84,-99.99,,,-99.99,,2013-03-17 04:43:00,
2013-03-17 00:53:00,52.0,48.0,30.15,SSE,153,1.0,2.0,84,-99.99,,,-99.99,,2013-03-17 04:53:00,
2013-03-17 01:03:00,51.0,47.0,30.15,SW,227,1.0,4.0,85,-99.99,,,-99.99,,2013-03-17 05:03:00,
2013-03-17 01:12:00,51.0,47.0,30.15,SW,227,1.0,4.0,85,-99.99,,,-99.99,,2013-03-17 05:12:00,
2013-03-17 01:22:00,50.0,46.0,30.15,ESE,121,0.0,1.0,87,-99.99,,,-99.99,,2013-03-17 05:22:00,
2013-03-17 01:32:00,50.0,46.0,30.15,ESE,121,0.0,1.0,87,-99.99,,,-99.99,,2013-03-17 05:32:00,
2013-03-17 01:42:00,47.0,44.0,30.14,SW,230,0.0,1.0,91,-99.99,,,-99.99,,2013-03-17 05:42:00,
2013-03-17 01:52:00,47.0,44.0,30.14,SW,230,0.0,1.0,91,-99.99,,,-99.99,,2013-03-17 05:52:00,
2013-03-17 02:02:00,46.0,44.0,30.13,ESE,117,0.0,2.0,92,-99.99,,,-99.99,,2013-03-17 06:02:00,
2013-03-17 02:12:00,46.0,44.0,30.13,ESE,117,0.0,2.0,92,-99.99,,,-99.99,,2013-03-17 06:12:00,
2013-03-17 02:22:00,45.0,43.0,30.13,SE,141,0.0,1.0,92,-99.99,,,-99.99,,2013-03-17 06:22:00,
2013-03-17 02:32:00,45.0,43.0,30.13,SE,141,0.0,1.0,92,-99.99,,,-99.99,,2013-03-17 06:32:00,
2013-03-17 02:42:00,44.0,42.0,30.12,WNW,297,1.0,1.0,93,-99.99,,,-99.99,,2013-03-17 06:42:00,
2013-03-17 02:53:00,44.0,42.0,30.12,WNW,297,1.0,1.0,93,-99.99,,,-99.99,,2013-03-17 06:53:00,
2013-03-17 03:02:00,43.0,42.0,30.12,East,84,1.0,2.0,94,-99.99,,,-99.99,,2013-03-17 07:02:00,
2013-03-17 03:12:00,43.0,42.0,30.12,East,84,1.0,2.0,94,-99.99,,,-99.99,,2013-03-17 07:12:00,
2013-03-17 03:22:00,43.0,41.0,30.12,SE,138,1.0,2.0,94,-99.99,,,-99.99,,2013-03-17 07:22:00,
2013-03-17 03:32:00,43.0,41.0,30.12,SE,138,1.0,2.0,94,-99.99,,,-99.99,,2013-03-17 07:32:00,
2013-03-17 03:42:00,42.0,41.0,30.11,SSW,212,0.0,1.0,94,-99.99,,,-99.99,,2013-03-17 07:42:00,
2013-03-17 03:52:00,42.0,41.0,30.11,SSW,212,0.0,1.0,94,-99.99,,,-99.99,,2013-03-17 07:52:00,
2013-03-17 04:03:00,42.0,41.0,30.11,WNW,290,1.0,2.0,95,-99.99,,,-99.99,,2013-03-17 08:03:00,
2013-03-17 04:13:00,42.0,41.0,30.11,WNW,290,1.0,2.0,95,-99.99,,,-99.99,,2013-03-17 08:13:00,
2013-03-17 04:22:00,42.0,40.0,30.10,NE,38,1.0,1.0,95,-99.99,,,-99.99,,2013-03-17 08:22:00,
2013-03-17 04:33:00,42.0,40.0,30.10,NE,38,1.0,1.0,95,-99.99,,,-99.99,,2013-03-17 08:33:00,
2013-03-17 04:42:00,41.0,40.0,30.09,NNE,14,2.0,3.0,95,-99.99,,,-99.99,,2013-03-17 08:42:00,
2013-03-17 04:52:00,41.0,40.0,30.09,NNE,14,2.0,3.0,95,-99.99,,,-99.99,,2013-03-17 08:52:00,
2013-03-17 05:03:00,41.0,40.0,30.09,ENE,62,1.0,2.0,95,-99.99,,,-99.99,,2013-03-17 09:03:00,
2013-03-17 05:13:00,41.0,40.0,30.09,ENE,62,1.0,2.0,95,-99.99,,,-99.99,,2013-03-17 09:13:00,
2013-03-17 05:22:00,40.0,39.0,30.09,SE,129,0.0,1.0,95,-99.99,,,-99.99,,2013-03-17 09:22:00,
2013-03-17 05:32:00,40.0,39.0,30.09,SE,129,0.0,1.0,95,-99.99,,,-99.99,,2013-03-17 09:32:00,
2013-03-17 05:43:00,40.0,39.0,30.09,WNW,287,1.0,1.0,95,-99.99,,,-99.99,,2013-03-17 09:43:00,
2013-03-17 05:53:00,40.0,39.0,30.09,WNW,287,1.0,1.0,95,-99.99,,,-99.99,,2013-03-17 09:53:00,
2013-03-17 06:03:00,41.0,40.0,30.08,NE,45,1.0,1.0,96,-99.99,,,-99.99,,2013-03-17 10:03:00,
2013-03-17 06:13:00,41.0,40.0,30.08,NE,45,1.0,1.0,96,-99.99,,,-99.99,,2013-03-17 10:13:00,
2013-03-17 06:23:00,41.0,40.0,30.09,South,185,1.0,1.0,96,-99.99,,,-99.99,,2013-03-17 10:23:00,
2013-03-17 06:33:00,41.0,40.0,30.09,South,185,1.0,1.0,96,-99.99,,,-99.99,,2013-03-17 10:33:00,
2013-03-17 06:42:00,41.0,40.0,30.09,ESE,104,1.0,3.0,96,-99.99,,,-99.99,,2013-03-17 10:42:00,
2013-03-17 06:53:00,41.0,40.0,30.09,ESE,104,1.0,3.0,96,-99.99,,,-99.99,,2013-03-17 10:53:00,
2013-03-17 07:03:00,40.0,39.0,30.09,SSE,161,1.0,1.0,96,-99.99,,,-99.99,,2013-03-17 11:03:00,
2013-03-17 07:12:00,40.0,39.0,30.09,SSE,161,1.0,1.0,96,-99.99,,,-99.99,,2013-03-17 11:12:00,
2013-03-17 07:22:00,41.0,40.0,30.10,SSW,194,1.0,2.0,96,-99.99,,,-99.99,,2013-03-17 11:22:00,
2013-03-17 07:32:00,41.0,40.0,30.10,SSW,194,1.0,2.0,96,-99.99,,,-99.99,,2013-03-17 11:32:00,
2013-03-17 07:42:00,41.0,40.0,30.11,SSE,165,1.0,3.0,96,-99.99,,,-99.99,,2013-03-17 11:42:00,
2013-03-17 07:52:00,41.0,40.0,30.11,SSE,165,1.0,3.0,96,-99.99,,,-99.99,,2013-03-17 11:52:00,
2013-03-17 08:02:00,42.0,41.0,30.12,ESE,116,1.0,1.0,96,-99.99,,,-99.99,,2013-03-17 12:02:00,
2013-03-17 08:12:00,42.0,41.0,30.12,ESE,116,1.0,1.0,96,-99.99,,,-99.99,,2013-03-17 12:12:00,
2013-03-17 08:22:00,42.0,41.0,30.12,ESE,105,1.0,3.0,96,-99.99,,,-99.99,,2013-03-17 12:22:00,
2013-03-17 08:33:00,42.0,41.0,30.12,ESE,105,1.0,3.0,96,-99.99,,,-99.99,,2013-03-17 12:33:00,
2013-03-17 08:43:00,46.0,45.0,30.13,East,94,1.0,3.0,96,-99.99,,,-99.99,,2013-03-17 12:43:00,
2013-03-17 08:52:00,46.0,45.0,30.13,East,94,1.0,3.0,96,-99.99,,,-99.99,,2013-03-17 12:52:00,
2013-03-17 09:02:00,50.0,49.0,30.14,East,99,1.0,3.0,96,-99.99,,,-99.99,,2013-03-17 13:02:00,
2013-03-17 09:13:00,50.0,49.0,30.14,East,99,1.0,3.0,96,-99.99,,,-99.99,,2013-03-17 13:13:00,
2013-03-17 09:22:00,54.0,52.0,30.13,ESE,110,3.0,6.0,92,-99.99,,,-99.99,,2013-03-17 13:22:00,
2013-03-17 09:32:00,54.0,52.0,30.13,ESE,110,3.0,6.0,92,-99.99,,,-99.99,,2013-03-17 13:32:00,
2013-03-17 09:43:00,60.0,54.0,30.14,ESE,107,4.0,8.0,79,-99.99,,,-99.99,,2013-03-17 13:43:00,
2013-03-17 09:53:00,60.0,54.0,30.14,ESE,107,4.0,8.0,79,-99.99,,,-99.99,,2013-03-17 13:53:00,
2013-03-17 10:02:00,61.0,54.0,30.14,East,87,3.0,7.0,78,-99.99,,,-99.99,,2013-03-17 14:02:00,
2013-03-17 10:12:00,61.0,54.0,30.14,East,87,3.0,7.0,78,-99.99,,,-99.99,,2013-03-17 14:12:00,
2013-03-17 10:22:00,53.0,43.0,30.15,East,95,3.0,7.0,68,-99.99,,,-99.99,,2013-03-17 14:22:00,
2013-03-17 10:33:00,53.0,43.0,30.15,East,95,3.0,7.0,68,-99.99,,,-99.99,,2013-03-17 14:33:00,
2013-03-17 10:42:00,69.0,57.0,30.14,SE,127,7.0,12.0,65,-99.99,,,-99.99,,2013-03-17 14:42:00,
2013-03-17 10:53:00,69.0,57.0,30.14,SE,127,7.0,12.0,65,-99.99,,,-99.99,,2013-03-17 14:53:00,
2013-03-17 11:02:00,70.0,57.0,30.14,SE,134,9.0,17.0,62,-99.99,,,-99.99,,2013-03-17 15:02:00,
2013-03-17 11:12:00,70.0,57.0,30.14,SE,134,9.0,17.0,62,-99.99,,,-99.99,,2013-03-17 15:12:00,
2013-03-17 11:23:00,72.0,58.0,30.15,SE,145,10.0,16.0,60,-99.99,,,-99.99,,2013-03-17 15:23:00,
2013-03-17 11:33:00,72.0,58.0,30.15,SE,145,10.0,16.0,60,-99.99,,,-99.99,,2013-03-17 15:33:00,
2013-03-17 11:43:00,74.0,60.0,30.14,SSE,166,9.0,19.0,59,-99.99,,,-99.99,,2013-03-17 15:43:00,
2013-03-17 11:53:00,74.0,60.0,30.14,SSE,166,9.0,19.0,59,-99.99,,,-99.99,,2013-03-17 15:53:00,
2013-03-17 12:03:00,76.0,60.0,30.14,SSE,150,9.0,16.0,57,-99.99,,,-99.99,,2013-03-17 16:03:00,
2013-03-17 12:13:00,76.0,60.0,30.14,SSE,150,9.0,16.0,57,-99.99,,,-99.99,,2013-03-17 16:13:00,
2013-03-17 12:23:00,77.0,59.0,30.14,SSE,165,8.0,17.0,55,-99.99,,,-99.99,,2013-03-17 16:23:00,
2013-03-17 12:33:00,77.0,59.0,30.14,SSE,165,8.0,17.0,55,-99.99,,,-99.99,,2013-03-17 16:33:00,
2013-03-17 12:43:00,76.0,58.0,30.14,South,177,8.0,12.0,53,-99.99,,,-99.99,,2013-03-17 16:43:00,
2013-03-17 12:53:00,76.0,58.0,30.14,South,177,8.0,12.0,53,-99.99,,,-99.99,,2013-03-17 16:53:00,
2013-03-17 13:03:00,74.0,58.0,30.13,South,174,7.0,12.0,55,-99.99,,,-99.99,,2013-03-17 17:03:00,
2013-03-17 13:12:00,74.0,58.0,30.13,South,174,7.0,12.0,55,-99.99,,,-99.99,,2013-03-17 17:12:00,
2013-03-17 13:22:00,77.0,58.0,30.13,South,178,7.0,12.0,51,-99.99,,,-99.99,,2013-03-17 17:22:00,
2013-03-17 13:33:00,77.0,58.0,30.13,South,178,7.0,12.0,51,-99.99,,,-99.99,,2013-03-17 17:33:00,
2013-03-17 13:42:00,78.0,57.0,30.11,SSE,163,7.0,14.0,48,-99.99,,,-99.99,,2013-03-17 17:42:00,
2013-03-17 13:53:00,78.0,57.0,30.11,SSE,163,7.0,14.0,48,-99.99,,,-99.99,,2013-03-17 17:53:00,
2013-03-17 14:02:00,77.0,57.0,30.11,SSE,160,8.0,16.0,49,-99.99,,,-99.99,,2013-03-17 18:02:00,
2013-03-17 14:12:00,77.0,57.0,30.11,SSE,160,8.0,16.0,49,-99.99,,,-99.99,,2013-03-17 18:12:00,
2013-03-17 14:22:00,79.0,57.0,30.10,South,178,8.0,15.0,47,-99.99,,,-99.99,,2013-03-17 18:22:00,
2013-03-17 14:32:00,79.0,57.0,30.10,South,178,8.0,15.0,47,-99.99,,,-99.99,,2013-03-17 18:32:00,
2013-03-17 14:42:00,78.0,57.0,30.09,South,188,7.0,14.0,48,-99.99,,,-99.99,,2013-03-17 18:42:00,
2013-03-17 14:52:00,78.0,57.0,30.09,South,188,7.0,14.0,48,-99.99,,,-99.99,,2013-03-17 18:52:00,
2013-03-17 15:02:00,78.0,58.0,30.08,South,180,9.0,31.0,49,-99.99,,,-99.99,,2013-03-17 19:02:00,
2013-03-17 15:12:00,78.0,58.0,30.08,South,180,9.0,31.0,49,-99.99,,,-99.99,,2013-03-17 19:12:00,
2013-03-17 15:23:00,78.0,58.0,30.07,SSW,212,7.0,16.0,49,-99.99,,,-99.99,,2013-03-17 19:23:00,
2013-03-17 15:33:00,78.0,58.0,30.07,SSW,212,7.0,16.0,49,-99.99,,,-99.99,,2013-03-17 19:33:00,
2013-03-17 15:42:00,78.0,58.0,30.06,SSW,199,6.0,13.0,49,-99.99,,,-99.99,,2013-03-17 19:42:00,
2013-03-17 15:53:00,78.0,58.0,30.06,SSW,199,6.0,13.0,49,-99.99,,,-99.99,,2013-03-17 19:53:00,
2013-03-17 16:02:00,78.0,58.0,30.06,South,191,5.0,11.0,50,-99.99,,,-99.99,,2013-03-17 20:02:00,
2013-03-17 16:12:00,78.0,58.0,30.06,South,191,5.0,11.0,50,-99.99,,,-99.99,,2013-03-17 20:12:00,
2013-03-17 16:23:00,78.0,58.0,30.05,SSW,195,6.0,12.0,51,-99.99,,,-99.99,,2013-03-17 20:23:00,
2013-03-17 16:33:00,78.0,58.0,30.05,SSW,195,6.0,12.0,51,-99.99,,,-99.99,,2013-03-17 20:33:00,
2013-03-17 16:42:00,76.0,58.0,30.04,SW,218,7.0,12.0,53,-99.99,,,-99.99,,2013-03-17 20:42:00,
2013-03-17 16:52:00,76.0,58.0,30.04,SW,218,7.0,12.0,53,-99.99,,,-99.99,,2013-03-17 20:52:00,
2013-03-17 17:03:00,76.0,58.0,30.04,SW,221,9.0,15.0,53,-99.99,,,-99.99,,2013-03-17 21:03:00,
2013-03-17 17:12:00,76.0,58.0,30.04,SW,221,9.0,15.0,53,-99.99,,,-99.99,,2013-03-17 21:12:00,
2013-03-17 17:23:00,77.0,59.0,30.04,SSW,211,8.0,14.0,51,-99.99,,,-99.99,,2013-03-17 21:23:00,
2013-03-17 17:33:00,77.0,59.0,30.04,SSW,211,8.0,14.0,51,-99.99,,,-99.99,,2013-03-17 21:33:00,
2013-03-17 17:43:00,78.0,58.0,30.04,SSW,213,6.0,12.0,50,-99.99,,,-99.99,,2013-03-17 21:43:00,
2013-03-17 17:53:00,78.0,58.0,30.04,SSW,213,6.0,12.0,50,-99.99,,,-99.99,,2013-03-17 21:53:00,
2013-03-17 18:03:00,76.0,58.0,30.03,South,190,7.0,11.0,52,-99.99,,,-99.99,,2013-03-17 22:03:00,
2013-03-17 18:13:00,76.0,58.0,30.03,South,190,7.0,11.0,52,-99.99,,,-99.99,,2013-03-17 22:13:00,
2013-03-17 18:23:00,75.0,58.0,30.03,SSW,196,6.0,10.0,55,-99.99,,,-99.99,,2013-03-17 22:23:00,
2013-03-17 18:33:00,75.0,58.0,30.03,SSW,196,6.0,10.0,55,-99.99,,,-99.99,,2013-03-17 22:33:00,
2013-03-17 18:42:00,74.0,58.0,30.02,South,186,5.0,8.0,56,-99.99,,,-99.99,,2013-03-17 22:42:00,
2013-03-17 18:53:00,74.0,58.0,30.02,South,186,5.0,8.0,56,-99.99,,,-99.99,,2013-03-17 22:53:00,
2013-03-17 19:03:00,73.0,57.0,30.03,South,180,6.0,11.0,57,-99.99,,,-99.99,,2013-03-17 23:03:00,
2013-03-17 19:12:00,73.0,57.0,30.03,South,180,6.0,11.0,57,-99.99,,,-99.99,,2013-03-17 23:12:00,
2013-03-17 19:22:00,74.0,57.0,30.03,South,187,6.0,11.0,56,-99.99,,,-99.99,,2013-03-17 23:22:00,
2013-03-17 19:33:00,74.0,57.0,30.03,South,187,6.0,11.0,56,-99.99,,,-99.99,,2013-03-17 23:33:00,
2013-03-17 19:43:00,71.0,57.0,30.04,South,180,4.0,8.0,59,-99.99,,,-99.99,,2013-03-17 23:43:00,
2013-03-17 19:53:00,71.0,57.0,30.04,South,180,4.0,8.0,59,-99.99,,,-99.99,,2013-03-17 23:53:00,
2013-03-17 20:03:00,70.0,57.0,30.04,SSW,199,3.0,8.0,62,-99.99,,,-99.99,,2013-03-18 00:03:00,
2013-03-17 20:13:00,70.0,57.0,30.04,SSW,199,3.0,8.0,62,-99.99,,,-99.99,,2013-03-18 00:13:00,
2013-03-17 20:22:00,69.0,57.0,30.04,SSW,211,2.0,4.0,66,-99.99,,,-99.99,,2013-03-18 00:22:00,
2013-03-17 20:33:00,69.0,57.0,30.04,SSW,211,2.0,4.0,66,-99.99,,,-99.99,,2013-03-18 00:33:00,
2013-03-17 20:42:00,63.0,56.0,30.04,WSW,243,1.0,1.0,76,-99.99,,,-99.99,,2013-03-18 00:42:00,
2013-03-17 20:53:00,63.0,56.0,30.04,WSW,243,1.0,1.0,76,-99.99,,,-99.99,,2013-03-18 00:53:00,
2013-03-17 21:02:00,60.0,54.0,30.04,SSE,165,1.0,1.0,80,-99.99,,,-99.99,,2013-03-18 01:02:00,
2013-03-17 21:12:00,60.0,54.0,30.04,SSE,165,1.0,1.0,80,-99.99,,,-99.99,,2013-03-18 01:12:00,
2013-03-17 21:22:00,58.0,53.0,30.04,SSW,211,1.0,1.0,82,-99.99,,,-99.99,,2013-03-18 01:22:00,
2013-03-17 21:32:00,58.0,53.0,30.04,SSW,211,1.0,1.0,82,-99.99,,,-99.99,,2013-03-18 01:32:00,
2013-03-17 21:42:00,57.0,52.0,30.05,SE,134,1.0,1.0,84,-99.99,,,-99.99,,2013-03-18 01:42:00,
2013-03-17 21:52:00,57.0,52.0,30.05,SE,134,1.0,1.0,84,-99.99,,,-99.99,,2013-03-18 01:52:00,
2013-03-17 22:02:00,56.0,52.0,30.06,SE,130,1.0,1.0,85,-99.99,,,-99.99,,2013-03-18 02:02:00,
2013-03-17 22:12:00,56.0,52.0,30.06,SE,130,1.0,1.0,85,-99.99,,,-99.99,,2013-03-18 02:12:00,
2013-03-17 22:22:00,55.0,52.0,30.06,ESE,117,1.0,2.0,86,-99.99,,,-99.99,,2013-03-18 02:22:00,
2013-03-17 22:32:00,55.0,52.0,30.06,ESE,117,1.0,2.0,86,-99.99,,,-99.99,,2013-03-18 02:32:00,
2013-03-17 22:42:00,54.0,51.0,30.07,ENE,78,1.0,1.0,89,-99.99,,,-99.99,,2013-03-18 02:42:00,
2013-03-17 22:52:00,54.0,51.0,30.07,ENE,78,1.0,1.0,89,-99.99,,,-99.99,,2013-03-18 02:52:00,
2013-03-17 23:03:00,54.0,51.0,30.08,East,83,0.0,1.0,89,-99.99,,,-99.99,,2013-03-18 03:03:00,
2013-03-17 23:12:00,54.0,51.0,30.08,East,83,0.0,1.0,89,-99.99,,,-99.99,,2013-03-18 03:12:00,
2013-03-17 23:22:00,53.0,51.0,30.08,NE,47,1.0,1.0,91,-99.99,,,-99.99,,2013-03-18 03:22:00,
2013-03-17 23:33:00,53.0,51.0,30.08,NE,47,1.0,1.0,91,-99.99,,,-99.99,,2013-03-18 03:33:00,
2013-03-17 23:42:00,52.0,50.0,30.08,SE,128,1.0,6.0,92,-99.99,,,-99.99,,2013-03-18 03:42:00,
2013-03-17 23:53:00,52.0,50.0,30.08,SE,128,1.0,6.0,92,-99.99,,,-99.99,,2013-03-18 03:53:00,